Regional Weather Roundup
Issued by NWS Newport/Morehead, NC

Current Version | Previous Version | Graphics & Text | Print | Product List | Glossary Off
Versions: 1 2 3 4 5 6 7 8 9 10 11 12 13 14 15 16 17 18 19 20 21 22 23 24 25 26 27 28 29 30 31 32 33 34 35 36 37 38 39 40 41 42 43 44 45 46 47 48 49 50

000
ASUS42 KMHX 191713
RWRMHX
WEATHER ROUNDUP FOR EASTERN NORTH CAROLINA
NATIONAL WEATHER SERVICE NEWPORT/MOREHEAD CITY NC
1200 PM EST SUN FEB 19 2017

NOTE: "FAIR" INDICATES FEW OR NO CLOUDS BELOW 12,000 FEET
WITH NO SIGNIFICANT WEATHER AND/OR OBSTRUCTIONS TO VISIBILITY

NCZ015>017-031-032-045>047-102-103-191800-
NORTH COAST

CITY           SKY/WX    TMP DP  RH WIND       PRES   REMARKS
EDENTON        SUNNY     68  45  44 NW7       29.94S
ELIZABETH CITY SUNNY     68  43  40 N6        29.93R
KITTY HAWK     NOT AVBL
MANTEO         MOSUNNY   62  44  52 CALM      29.92F

$$

NCZ045>047-081-094-103-104-191800-
CENTRAL COAST

CITY           SKY/WX    TMP DP  RH WIND       PRES   REMARKS
FRISCO         MOSUNNY   61  45  55 VRB5      29.94S HAZE

$$

NCZ095-097-098-100-101-191800-
SOUTHERN COAST

CITY           SKY/WX    TMP DP  RH WIND       PRES   REMARKS
BEAUFORT       MOSUNNY   62  50  64 SW9       29.95S
CEDAR ISLAND   NOT AVBL
JACKSONVILLE   SUNNY     66  46  48 W8        29.94F
PINEY ISLAND   SUNNY    N/A N/A N/A W8        29.93F
WILMINGTON     SUNNY     67  48  50 VRB7      29.96F


$$

NCZ011>013-027>030-043-044-078>080-089-090>093-098-191800-
COASTAL PLAIN

CITY           SKY/WX    TMP DP  RH WIND       PRES   REMARKS
AHOSKIE          N/A     65  42  44 CALM      29.94R
CLINTON        SUNNY     66  46  48 NW5       29.97F
ELIZABETHTOWN  SUNNY     66  46  46 W8        29.98F
GOLDSBORO      SUNNY     69  40  35 NW6       29.94F
GREENVILLE     SUNNY     70  41  35 NW7       29.96F
HAVELOCK       MOSUNNY   69  45  41 VRB7      29.95S
KENANSVILLE    NOT AVBL
KINSTON        SUNNY     70  39  32 NW6       29.95F
NEW BERN       SUNNY     68  45  43 NW8       29.94F
RICHLANDS      SUNNY     67  45  45 W9        29.95F
ROCKY MOUNT    SUNNY     68  42  38 NW12      29.96S
WASHINGTON     SUNNY     68  42  39 NW9       29.93F
WHITEVILLE     SUNNY     65  47  51 CALM      29.98F

$$

AMZ130-135-150-152-154-156-158-170-250-252-270-ANZ085-086-088-633-658-670-191800-
MARINE OBSERVATIONS

STATION/POSITION TIME  TEMP    WIND        PRES    WAVE   SWELL
                       AIR SEA DIR/SP/G            HT/PER HT/PER
                 (UTC) (F)     (DEG/KT/KT) (MB)    (FT/S) (FT/S)
CHESAPEAKE LIGHT NOT AVBL
64 E VA BEACH    1650   52 51  230/  8/ 10 1012.3    3/ 6   2/ 6
DUCK             1648   61 47   CALM  /  1 1012.6
2 E DUCK         1700      50                N/A     1/ 6
OREGON INLET     1642   54 51  220/  6/  6 1013.3
13E OREGON INLT  NOT AVBL
HATTERAS CG      1648   56 56  240/  6/  8 1013.6
DIAMOND BUOY     1650   60 67  290/ 10/ 12 1014.1    2/ 8   2/ 8
CAPE LOOKOUT     1700   58     250/ 12/ 14 1013.7
BEAUFORT LAB     1648   60 51  220/  3/  8 1013.1
30 SE NEW RVR IN 1608   58     290/ 12/ 16 1015.2
30 SE NEW RVR IN 1643      64                N/A     3/ 4
27 SE WRIGHTSVLE 1608   57 61  280/ 14/ 19 1014.4
5 SE WRIGHTSVLE  1608   58 56  300/ 10/ 14 1015.0
225 S CAPE HAT   1650   68 71  190/  8/ 12 1014.7    5/ 6   5/ 6
41 SE CHARLESTON 1550   61 68  270/ 10/ 12 1016.3    2/ 5   2/ 5

$$



USA.gov is the U.S. government's official web portal to all federal, state and local government web resources and services.